Location: Waco, TX
(31.5480°N, 97.1670°W)
Time: 21:06:50
(UTC-05:00)

ISS - Pass Details

Date: 15 September 2018
Orbit: 403 x 408 km, 51.6° (Epoch: 25 September)

Event Time Altitude Azimuth Distance (km) Brightness Sun altitude
Rises 07:18:17 0° 311° (NW) 2,318 -0.4 0.3°
Reaches altitude 10° 07:20:23 10° 307° (NW) 1,455 -1.5 0.8°
Maximum altitude 07:23:36 59° 228° (SW) 470 -3.7 1.5°
Drops below altitude 10° 07:26:48 10° 148° (SSE) 1,445 -0.6 2.1°
Sets 07:28:52 0° 144° (SE) 2,300 0.5 2.6°
